SCP
0 0 0 0 0 0 0 0 -0 -0 -0 -0 -0 -0 -0 -0 0 0 0 -0 -0 -0 -0 -0 -0 -0 -0 -0 -0 -0 0 -0 -0 0 -0 -0 0 0 0 0 0 0 0 -0 -0 -0 0
0 0 0 0 0 0 0 0 0 0 0 0 -0 -0 -0 -0 0 0 0 -0 -0 -0 -0 -0 -0 -0 -0 0 0 0 -0 0 0 0 -0 -0 0 0 0 -0 0 -0 -0 -0 0 -0 -0
0 0 0 0 0 0 0 0 0 0 0 0 0 -0 -0 -0 -0 0 0 -0 -0 -0 -0 -0 -0 -0 -0 -0 -0 -0 0 0 -0 0 -0 0 0 0 0 -0 0 0 -0 0 -0 0 -0
0 0 0 0 0 0 0 0 0 0 0 0 0 -0 -0 -0 -0 0 0 -0 -0 -0 -0 -0 -0 -0 0 0 -0 -0 -0 0 0 0 0 0 0 -0 -0 -0 -0 -0 0 -0 0 -0 0
0 0 0 0 0 0 0 0 0 0 0 0 0 -0 -0 -0 -0 0 0 0 -0 0 0 0 0 -0 0 0 0 -0 0 -0 0 0 0 0 -0 -0 -0 -0 -0 0 -0 -0 -0 -0 0
0 0 0 0 0 0 0 0 0 0 0 0 0 -0 -0 -0 0 0 0 0 0 0 0 0 0 -0 0 0 0 0 -0 -0 -0 -0 0 0 -0 -0 -0 -0 -0 0 0 0 -0 0 -0
0 0 0 0 0 0 0 0 0 0 0 0 0 0 -0 -0 -0 0 0 0 0 0 0 0 0 0 0 -0 0 0 0 0 -0 0 -0 -0 -0 -0 -0 0 0 0 0 -0 -0 0 0
0 0 0 0 0 0 0 0 0 0 0 0 0 0 0 -0 0 0 0 0 0 0 0 0 0 0 0 0 -0 -0 -0 -0 -0 -0 -0 -0 -0 -0 -0 0 0 0 0 0 0 0 -0
0 0 0 0 0 0 0 0 0 0 0 0 0 0 0 0 0 0 0 0 0 0 0 0 0 0 0 0 -0 -0 -0 -0 -0 -0 -0 -0 0 0 -0 0 0 0 -0 0 0 0 -0
0 0 0 0 0 0 0 0 0 0 0 0 0 0 0 0 0 0 0 0 0 0 0 0 0 0 0 0 -0 0 0 -0 -0 -0 -0 0 0 -0 -0 -0 -0 0 0 0 -0 -0 0
0 0 0 0 0 0 0 0 0 0 0 0 0 0 0 0 0 0 0 0 0 0 0 0 0 0 0 0 0 0 0 -0 -0 -0 -0 0 0 -0 0 0 0 0 0 0 -0 0 -0
0 0 0 0 0 0 0 0 0 0 0 0 0 0 -0 0 0 0 0 0 0 0 0 0 0 0 0 0 0 0 0 0 0 -0 0 0 0 0 0 0 0 0 0 0 0 0 0
0 0 0 0 0 0 0 0 0 0 0 0 0 -0 0 0 0 0 0 0 0 0 0 0 0 0 -0 0 0 -0 -0 -0 -0 -0 0 0 0 0 0 0 0 0 0 0 0 0 0
0 0 0 0 0 0 0 0 0 0 0 0 -0 0 0 0 0 0 0 0 0 0 0 0 0 0 0 0 0 -0 -0 -0 -0 -0 0 -0 -0 0 0 0 0 0 0 0 0 0 0
0 0 0 0 0 0 0 0 0 0 0 -0 -0 0 0 0 0 0 0 0 0 0 0 0 0 0 0 0 0 -0 -0 -0 -0 -0 -0 0 0 0 0 0 0 0 0 0 0 0 0
0 0 0 0 0 0 0 0 0 0 0 -0 0 0 0 0 0 0 0 0 0 0 0 0 0 0 0 0 0 -0 -0 0 -0 0 0 0 0 0 0 0 0 0 0 0 0 0 0
0 0 0 0 0 0 0 0 0 0 0 -0 0 0 0 0 0 0 0 0 0 0 0 0 0 0 0 0 0 -0 0 0 0 0 0 0 0 0 0 0 0 0 0 0 0 0 0
0 0 0 0 0 0 0 0 0 0 0 -0 0 0 0 0 0 0 0 0 0 0 0 0 0 0 0 0 0 0 0 0 0 0 0 0 0 0 0 0 0 0 0 0 0 0 0
0 0 0 0 0 0 0 0 0 0 0 0 0 0 0 0 0 0 0 0 0 0 0 0 0 0 0 0 0 0 0 0 0 0 0 0 0 0 0 0 0 0 0 0 0 0 0
0 0 0 0 0 0 0 0 0 0 0 0 0 0 0 0 0 0 0 0 0 0 0 0 0 0 0 0 0 0 0 0 0 0 0 0 0 -0 -0 0 0 0 0 0 0 0 0
0 0 0 0 0 0 0 0 0 0 0 0 0 0 0 0 0 0 0 0 0 0 0 0 0 0 0 0 0 0 0 0 0 0 0 0 0 0 0 0 0 0 0 0 0 0 0
0 0 0 0 0 0 0 0 -0 0 0 0 0 0 0 0 0 0 0 0 0 0 0 0 0 0 0 0 0 0 0 0 0 0 0 0 0 0 0 0 0 0 0 0 0 0 0
0 0 0 0 0 0 0 0 0 0 0 0 0 0 0 0 0 0 0 0 0 0 0 0 0 0 0 0 0 0 0 0 0 0 0 0 0 0 0 0 0 0 0 0 0 0 0
0 0 0 0 0 0 0 0 0 0 0 0 0 0 0 0 0 0 0 0 0 0 0 0 0 0 0 0 0 0 0 0 0 0 0 0 0 0 0 0 0 0 0 0 0 0 0
0 0 0 0 0 0 0 0 0 0 0 0 0 0 0 0 0 0 0 0 0 0 0 0 0 0 0 0 0 0 0 0 0 0 0 0 0 0 0 0 0 0 0 0 0 0 0
0 0 0 0 0 0 0 0 0 0 0 0 0 0 0 0 0 0 0 0 0 0 0 0 0 0 0 0 0 0 0 0 0 0 0 0 0 0 0 0 0 0 0 0 0 0 0
0 0 0 0 0 0 0 0 0 0 0 0 0 0 0 0 0 0 0 0 0 0 0 0 0 0 0 0 0 0 0 0 0 0 0 0 0 0 0 0 0 0 0 0 0 0 0
0 0 0 0 0 0 0 0 0 0 0 0 0 0 0 0 0 0 0 0 0 0 0 0 0 0 0 0 0 0 0 0 0 0 0 0 0 0 0 0 0 0 0 0 0 0 0
0 0 0 0 0 0 0 0 0 0 0 0 0 0 0 0 0 0 0 0 0 0 0 1 1 1 0 0 0 0 0 0 0 0 0 0 0 0 0 0 0 0 0 0 0 0 0
Wind_Speed_500mb
19 17 15 13 12 11 9 9 9 11 14 15 18 21 22 21 22 22 22 24 21 23 22 24 19 20 24 7 1 8 7 22 29 26 17 14 12 9 14 3 6 8 11 9 4 3 6
18 18 16 13 11 9 6 5 8 10 13 16 19 20 21 21 21 21 20 22 19 22 19 21 17 21 22 5 1 6 9 25 21 19 16 12 1 6 10 5 10 8 14 18 14 11 11
16 14 12 10 8 5 1 3 5 8 12 16 20 21 21 20 20 19 19 19 19 19 16 19 15 23 10 3 3 6 16 22 21 17 13 8 4 5 2 9 2 13 16 21 16 10 14
17 16 15 14 11 8 5 1 5 10 14 17 20 22 21 19 17 16 17 17 17 16 13 16 13 22 7 1 4 8 19 20 24 19 12 9 6 9 9 3 11 14 8 22 23 9 9
21 20 18 16 14 10 6 4 7 11 15 19 23 22 20 18 15 14 15 13 14 14 11 14 11 9 5 5 8 7 17 10 14 14 14 9 6 7 12 23 20 8 17 14 19 22 8
26 24 21 18 15 12 9 9 11 14 18 21 23 23 19 14 12 10 12 10 12 11 10 9 8 4 7 5 3 8 15 18 9 17 12 10 13 18 13 14 11 10 13 13 15 16 32
29 26 23 20 18 14 11 10 13 14 18 21 24 21 17 14 9 8 5 5 8 3 7 5 1 12 5 10 10 11 16 17 15 19 13 12 15 16 14 13 12 6 8 21 19 8 27
30 26 23 21 18 15 12 11 14 17 18 20 22 19 14 9 7 5 3 2 1 2 3 14 20 14 10 4 10 14 18 15 19 15 12 16 16 11 13 13 11 9 14 18 14 19 25
28 25 23 20 18 15 13 13 15 18 20 21 21 19 13 7 5 6 8 6 4 6 8 6 10 6 3 13 12 17 12 11 13 12 6 10 16 11 17 16 14 8 14 19 23 17 23
26 22 22 20 17 15 14 17 18 20 22 22 20 18 11 4 4 9 7 3 7 8 10 15 13 10 9 7 14 8 7 6 10 8 7 11 6 20 20 15 19 11 7 9 28 31 18
23 20 19 17 15 15 16 19 21 24 24 21 18 16 9 9 5 11 10 4 6 4 10 19 15 9 12 22 22 9 2 4 9 10 11 8 25 13 13 12 11 14 3 20 27 14 16
19 17 16 14 13 14 17 20 24 28 27 22 16 13 7 12 10 15 5 4 8 10 6 16 16 19 24 21 18 15 8 11 8 12 19 21 12 13 13 10 7 9 15 15 17 14 17
12 10 11 10 10 12 15 21 27 30 30 24 14 11 9 13 9 14 4 8 9 8 8 15 24 25 28 21 20 23 21 18 13 22 26 25 15 13 8 10 15 10 12 11 10 12 10
13 9 5 6 9 12 14 18 26 33 34 28 14 9 10 18 16 14 10 11 8 7 6 5 15 25 21 22 28 17 20 18 5 22 22 17 21 5 7 10 11 6 11 12 18 12 10
12 8 3 3 9 12 16 19 22 32 36 33 14 7 10 21 21 13 12 12 3 5 4 5 20 30 15 18 18 24 24 17 10 14 12 10 11 13 13 14 7 7 6 8 11 8 15
11 7 3 3 8 13 18 20 23 28 36 32 11 2 8 22 25 11 14 3 4 2 5 7 25 20 23 26 25 25 23 7 12 3 7 5 10 5 8 5 14 10 6 10 8 7 10
11 6 2 4 9 15 20 22 24 26 33 26 5 7 10 24 23 15 17 10 3 1 6 10 15 15 17 20 23 25 21 11 6 12 3 13 5 15 10 4 12 5 6 2 7 8 13
10 7 5 5 10 16 22 25 26 28 31 21 3 9 15 32 17 16 19 8 2 6 2 8 8 6 20 13 15 14 16 3 8 19 15 4 2 4 12 8 5 6 8 7 12 7 4
9 5 4 7 11 16 23 28 29 29 28 16 4 2 24 11 13 17 10 13 7 9 4 5 12 5 6 11 10 7 9 5 10 10 13 14 5 8 15 13 9 7 5 2 1 7 5
10 6 5 6 10 15 20 27 30 29 25 10 6 9 12 13 11 11 18 16 11 8 6 6 6 9 14 11 1 13 14 7 7 7 9 6 5 6 12 10 5 7 7 4 8 13 14
11 7 5 5 8 13 17 23 29 29 21 1 7 4 4 17 17 17 14 4 12 6 8 7 11 13 15 11 14 13 14 20 12 14 6 1 7 5 5 7 5 2 5 6 13 11 11
12 9 5 3 7 11 16 20 25 28 15 5 3 5 10 7 10 17 9 14 9 3 4 7 10 16 12 15 10 23 20 20 15 13 7 1 8 11 7 6 7 8 2 2 2 3 4
14 10 6 2 4 10 15 21 23 25 22 7 3 4 6 13 15 17 11 7 4 5 2 2 7 13 16 11 8 16 11 11 18 19 13 8 13 11 5 6 9 16 4 1 4 1 8
15 11 7 3 3 7 13 18 23 29 28 28 9 4 10 13 18 21 8 7 7 4 4 4 3 2 9 29 36 31 31 32 25 22 7 19 13 5 5 9 16 13 5 4 6 1 3
14 12 8 5 1 5 11 15 20 26 27 29 28 3 6 8 6 14 14 9 11 8 6 1 8 16 29 13 15 16 12 15 16 16 14 13 8 6 8 12 6 12 7 8 8 5 1
13 13 9 7 4 3 7 12 18 21 25 21 32 16 3 8 6 5 9 4 11 9 10 5 12 24 2 6 7 13 14 12 12 12 8 11 4 10 6 9 7 16 10 5 3 9 7
13 11 10 8 7 4 5 9 16 19 22 22 25 27 6 2 6 1 5 4 4 5 4 13 12 8 5 9 11 12 8 6 12 14 12 10 7 12 9 11 4 12 18 11 11 7 13
24 15 11 7 8 6 6 9 13 16 19 21 15 23 12 3 8 6 6 3 2 2 10 8 9 5 8 8 9 6 8 6 7 5 7 12 10 8 4 10 15 27 19 9 18 20 18
29 22 18 14 8 7 7 9 11 14 16 18 17 22 14 6 2 10 14 13 11 6 1 1 4 6 4 6 3 5 6 6 8 13 7 11 6 6 8 8 6 38 4 14 22 21 19
Wind_Direction_500mb
214 217 225 226 232 254 265 287 301 317 315 314 311 306 306 300 293 286 289 292 303 308 322 324 341 332 350 279 335 310 180 163 163 166 176 180 202 260 264 307 223 238 24 56 9 206 246
208 208 208 209 212 229 243 300 324 319 321 324 319 315 310 303 291 283 287 290 298 303 320 320 340 329 341 232 210 42 150 171 166 164 175 170 296 309 286 265 264 95 68 67 72 96 71
194 193 189 181 176 205 307 336 322 331 332 329 327 325 314 305 293 285 283 286 293 303 316 317 334 331 312 294 179 68 127 154 167 169 171 204 235 280 281 185 210 157 150 95 59 67 68
170 165 159 156 150 143 130 16 354 343 337 335 333 330 321 307 295 281 280 282 288 299 311 312 328 333 254 230 9 125 138 142 153 172 186 216 237 264 235 181 186 170 231 91 45 10 36
147 144 140 135 129 122 102 49 9 351 345 342 337 332 325 309 291 283 277 278 287 289 304 303 320 346 152 50 92 121 145 157 183 188 196 188 218 256 192 207 162 226 75 83 76 32 23
135 132 128 123 113 101 74 39 14 353 346 344 339 333 325 310 296 284 278 290 281 288 288 299 293 215 161 130 304 180 171 169 161 159 149 203 220 227 189 243 64 66 120 82 68 50 88
131 128 124 118 111 101 79 44 19 5 348 346 340 334 324 317 295 281 286 318 289 240 233 245 30 304 329 322 147 168 179 178 175 209 178 183 249 44 62 50 78 76 88 102 113 99 87
128 125 119 112 101 88 71 45 22 6 353 347 341 333 324 305 281 243 162 232 261 145 245 244 259 279 294 194 170 162 164 193 202 132 167 197 91 81 122 132 121 99 115 109 100 109 115
125 121 113 102 91 75 59 43 24 6 354 345 340 332 314 293 247 200 164 194 351 20 253 201 238 249 167 169 163 153 182 172 183 157 68 355 68 138 158 167 143 60 351 173 137 149 123
125 119 108 97 84 68 48 34 20 6 355 342 336 325 304 269 232 184 190 270 346 124 220 148 194 165 190 197 173 168 188 232 194 104 99 57 124 160 186 91 332 79 10 178 153 179 168
126 116 105 94 80 60 42 27 16 7 355 341 329 317 292 212 213 167 202 316 105 147 192 149 151 158 179 203 148 164 152 245 198 120 241 89 141 169 93 42 356 36 202 180 186 233 213
125 112 104 92 75 58 40 20 11 7 356 341 322 307 271 211 202 188 209 170 138 223 163 155 161 178 175 183 182 138 156 105 108 125 90 110 111 38 63 72 60 128 122 153 206 214 234
145 126 98 84 65 47 36 20 8 1 356 345 320 294 251 199 189 188 183 170 193 240 139 163 179 180 182 174 169 185 169 162 184 161 138 137 102 101 36 147 147 232 223 215 199 228 35
158 150 126 67 44 28 16 3 1 355 351 348 318 291 234 204 189 179 171 231 200 97 194 111 202 183 183 166 173 175 176 163 190 246 161 166 157 15 16 9 353 25 324 337 317 335 79
167 163 142 31 18 11 1 352 340 345 345 343 325 293 229 206 187 184 225 214 95 117 65 215 183 181 164 171 179 179 194 180 147 178 182 180 105 113 57 42 309 75 313 15 292 182 263
178 173 172 9 360 356 351 348 338 331 340 339 335 264 212 194 185 191 232 267 142 163 316 196 192 202 174 169 179 197 186 151 165 218 311 106 131 176 113 233 75 353 72 267 211 296 309
197 204 232 334 0 352 346 340 341 328 338 341 356 220 213 175 168 202 217 176 243 111 265 208 208 192 185 162 185 191 180 134 204 149 133 155 273 139 199 6 351 178 185 355 301 322 323
199 215 257 307 348 350 348 341 336 337 337 340 235 213 177 158 201 208 216 229 349 314 148 232 250 221 186 173 171 174 179 75 149 167 157 92 30 156 61 78 10 8 24 334 323 87 68
198 221 274 307 320 328 339 339 338 339 337 345 221 103 176 183 212 198 191 229 270 287 275 214 201 220 177 158 165 180 144 81 156 172 152 175 136 185 174 163 164 260 92 61 64 272 137
194 211 270 312 329 326 330 336 339 340 336 331 209 172 169 214 277 248 193 207 220 223 247 225 156 154 151 159 179 173 152 126 134 118 110 104 117 308 352 38 49 174 197 227 300 291 348
201 210 252 316 338 332 335 342 342 345 337 333 212 180 180 189 195 215 204 180 206 225 212 224 166 191 168 156 172 174 149 136 134 137 111 218 143 168 105 127 195 216 278 265 289 343 294
202 207 230 288 335 335 346 352 354 354 353 56 242 250 194 172 165 193 172 199 219 250 267 153 201 147 163 173 197 183 171 174 167 164 132 39 139 168 153 164 221 228 182 342 15 18 268
193 201 209 249 334 344 352 4 3 17 22 29 340 231 253 163 196 210 178 193 197 344 132 8 119 128 126 92 80 91 129 116 149 153 123 148 147 204 158 197 225 239 106 270 136 242 333
186 199 199 221 339 350 358 4 8 20 29 38 21 179 255 183 220 209 174 232 248 349 323 12 34 158 117 115 102 99 104 104 99 79 124 142 146 198 104 208 250 77 80 235 280 309 193
188 201 198 201 293 351 360 4 7 17 24 30 27 66 281 200 225 197 202 244 273 280 218 281 35 117 138 131 131 133 142 135 86 61 86 143 164 131 241 231 353 177 179 206 245 115 17
204 210 214 204 236 322 349 354 360 10 19 25 22 25 10 275 158 327 220 214 247 216 150 102 118 142 103 199 172 199 186 142 164 132 79 102 113 255 183 275 265 73 131 168 264 215 118
211 217 232 226 231 286 322 344 347 3 11 20 15 20 56 304 43 333 232 184 223 225 183 157 143 169 188 202 200 201 146 301 185 179 169 167 207 240 219 267 281 117 139 151 239 76 128
228 234 240 247 238 249 295 326 333 353 4 16 11 14 41 5 52 44 31 107 184 258 203 131 151 172 188 186 218 142 212 139 209 79 210 207 212 206 237 258 250 146 142 229 111 134 155
229 237 255 248 258 242 266 300 317 347 349 9 8 2 24 33 14 88 82 88 88 74 320 99 19 106 113 124 92 155 172 187 259 232 167 221 283 313 251 11 111 170 67 167 161 158 169
Wind_Speed_850mb
19 17 15 13 12 11 9 9 9 11 14 15 18 21 22 21 22 22 22 24 21 23 22 24 19 20 24 7 1 8 7 22 29 26 17 14 12 9 14 3 6 8 11 9 4 3 6
18 18 16 13 11 9 6 5 8 10 13 16 19 20 21 21 21 21 20 22 19 22 19 21 17 21 22 5 1 6 9 25 21 19 16 12 1 6 10 5 10 8 14 18 14 11 11
16 14 12 10 8 5 1 3 5 8 12 16 20 21 21 20 20 19 19 19 19 19 16 19 15 23 10 3 3 6 16 22 21 17 13 8 4 5 2 9 2 13 16 21 16 10 14
17 16 15 14 11 8 5 1 5 10 14 17 20 22 21 19 17 16 17 17 17 16 13 16 13 22 7 1 4 8 19 20 24 19 12 9 6 9 9 3 11 14 8 22 23 9 9
21 20 18 16 14 10 6 4 7 11 15 19 23 22 20 18 15 14 15 13 14 14 11 14 11 9 5 5 8 7 17 10 14 14 14 9 6 7 12 23 20 8 17 14 19 22 8
26 24 21 18 15 12 9 9 11 14 18 21 23 23 19 14 12 10 12 10 12 11 10 9 8 4 7 5 3 8 15 18 9 17 12 10 13 18 13 14 11 10 13 13 15 16 32
29 26 23 20 18 14 11 10 13 14 18 21 24 21 17 14 9 8 5 5 8 3 7 5 1 12 5 10 10 11 16 17 15 19 13 12 15 16 14 13 12 6 8 21 19 8 27
30 26 23 21 18 15 12 11 14 17 18 20 22 19 14 9 7 5 3 2 1 2 3 14 20 14 10 4 10 14 18 15 19 15 12 16 16 11 13 13 11 9 14 18 14 19 25
28 25 23 20 18 15 13 13 15 18 20 21 21 19 13 7 5 6 8 6 4 6 8 6 10 6 3 13 12 17 12 11 13 12 6 10 16 11 17 16 14 8 14 19 23 17 23
26 22 22 20 17 15 14 17 18 20 22 22 20 18 11 4 4 9 7 3 7 8 10 15 13 10 9 7 14 8 7 6 10 8 7 11 6 20 20 15 19 11 7 9 28 31 18
23 20 19 17 15 15 16 19 21 24 24 21 18 16 9 9 5 11 10 4 6 4 10 19 15 9 12 22 22 9 2 4 9 10 11 8 25 13 13 12 11 14 3 20 27 14 16
19 17 16 14 13 14 17 20 24 28 27 22 16 13 7 12 10 15 5 4 8 10 6 16 16 19 24 21 18 15 8 11 8 12 19 21 12 13 13 10 7 9 15 15 17 14 17
12 10 11 10 10 12 15 21 27 30 30 24 14 11 9 13 9 14 4 8 9 8 8 15 24 25 28 21 20 23 21 18 13 22 26 25 15 13 8 10 15 10 12 11 10 12 10
13 9 5 6 9 12 14 18 26 33 34 28 14 9 10 18 16 14 10 11 8 7 6 5 15 25 21 22 28 17 20 18 5 22 22 17 21 5 7 10 11 6 11 12 18 12 10
12 8 3 3 9 12 16 19 22 32 36 33 14 7 10 21 21 13 12 12 3 5 4 5 20 30 15 18 18 24 24 17 10 14 12 10 11 13 13 14 7 7 6 8 11 8 15
11 7 3 3 8 13 18 20 23 28 36 32 11 2 8 22 25 11 14 3 4 2 5 7 25 20 23 26 25 25 23 7 12 3 7 5 10 5 8 5 14 10 6 10 8 7 10
11 6 2 4 9 15 20 22 24 26 33 26 5 7 10 24 23 15 17 10 3 1 6 10 15 15 17 20 23 25 21 11 6 12 3 13 5 15 10 4 12 5 6 2 7 8 13
10 7 5 5 10 16 22 25 26 28 31 21 3 9 15 32 17 16 19 8 2 6 2 8 8 6 20 13 15 14 16 3 8 19 15 4 2 4 12 8 5 6 8 7 12 7 4
9 5 4 7 11 16 23 28 29 29 28 16 4 2 24 11 13 17 10 13 7 9 4 5 12 5 6 11 10 7 9 5 10 10 13 14 5 8 15 13 9 7 5 2 1 7 5
10 6 5 6 10 15 20 27 30 29 25 10 6 9 12 13 11 11 18 16 11 8 6 6 6 9 14 11 1 13 14 7 7 7 9 6 5 6 12 10 5 7 7 4 8 13 14
11 7 5 5 8 13 17 23 29 29 21 1 7 4 4 17 17 17 14 4 12 6 8 7 11 13 15 11 14 13 14 20 12 14 6 1 7 5 5 7 5 2 5 6 13 11 11
12 9 5 3 7 11 16 20 25 28 15 5 3 5 10 7 10 17 9 14 9 3 4 7 10 16 12 15 10 23 20 20 15 13 7 1 8 11 7 6 7 8 2 2 2 3 4
14 10 6 2 4 10 15 21 23 25 22 7 3 4 6 13 15 17 11 7 4 5 2 2 7 13 16 11 8 16 11 11 18 19 13 8 13 11 5 6 9 16 4 1 4 1 8
15 11 7 3 3 7 13 18 23 29 28 28 9 4 10 13 18 21 8 7 7 4 4 4 3 2 9 29 36 31 31 32 25 22 7 19 13 5 5 9 16 13 5 4 6 1 3
14 12 8 5 1 5 11 15 20 26 27 29 28 3 6 8 6 14 14 9 11 8 6 1 8 16 29 13 15 16 12 15 16 16 14 13 8 6 8 12 6 12 7 8 8 5 1
13 13 9 7 4 3 7 12 18 21 25 21 32 16 3 8 6 5 9 4 11 9 10 5 12 24 2 6 7 13 14 12 12 12 8 11 4 10 6 9 7 16 10 5 3 9 7
13 11 10 8 7 4 5 9 16 19 22 22 25 27 6 2 6 1 5 4 4 5 4 13 12 8 5 9 11 12 8 6 12 14 12 10 7 12 9 11 4 12 18 11 11 7 13
24 15 11 7 8 6 6 9 13 16 19 21 15 23 12 3 8 6 6 3 2 2 10 8 9 5 8 8 9 6 8 6 7 5 7 12 10 8 4 10 15 27 19 9 18 20 18
29 22 18 14 8 7 7 9 11 14 16 18 17 22 14 6 2 10 14 13 11 6 1 1 4 6 4 6 3 5 6 6 8 13 7 11 6 6 8 8 6 38 4 14 22 21 19
Wind_Direction_850mb
214 217 225 226 232 254 265 287 301 317 315 314 311 306 306 300 293 286 289 292 303 308 322 324 341 332 350 279 335 310 180 163 163 166 176 180 202 260 264 307 223 238 24 56 9 206 246
208 208 208 209 212 229 243 300 324 319 321 324 319 315 310 303 291 283 287 290 298 303 320 320 340 329 341 232 210 42 150 171 166 164 175 170 296 309 286 265 264 95 68 67 72 96 71
194 193 189 181 176 205 307 336 322 331 332 329 327 325 314 305 293 285 283 286 293 303 316 317 334 331 312 294 179 68 127 154 167 169 171 204 235 280 281 185 210 157 150 95 59 67 68
170 165 159 156 150 143 130 16 354 343 337 335 333 330 321 307 295 281 280 282 288 299 311 312 328 333 254 230 9 125 138 142 153 172 186 216 237 264 235 181 186 170 231 91 45 10 36
147 144 140 135 129 122 102 49 9 351 345 342 337 332 325 309 291 283 277 278 287 289 304 303 320 346 152 50 92 121 145 157 183 188 196 188 218 256 192 207 162 226 75 83 76 32 23
135 132 128 123 113 101 74 39 14 353 346 344 339 333 325 310 296 284 278 290 281 288 288 299 293 215 161 130 304 180 171 169 161 159 149 203 220 227 189 243 64 66 120 82 68 50 88
131 128 124 118 111 101 79 44 19 5 348 346 340 334 324 317 295 281 286 318 289 240 233 245 30 304 329 322 147 168 179 178 175 209 178 183 249 44 62 50 78 76 88 102 113 99 87
128 125 119 112 101 88 71 45 22 6 353 347 341 333 324 305 281 243 162 232 261 145 245 244 259 279 294 194 170 162 164 193 202 132 167 197 91 81 122 132 121 99 115 109 100 109 115
125 121 113 102 91 75 59 43 24 6 354 345 340 332 314 293 247 200 164 194 351 20 253 201 238 249 167 169 163 153 182 172 183 157 68 355 68 138 158 167 143 60 351 173 137 149 123
125 119 108 97 84 68 48 34 20 6 355 342 336 325 304 269 232 184 190 270 346 124 220 148 194 165 190 197 173 168 188 232 194 104 99 57 124 160 186 91 332 79 10 178 153 179 168
126 116 105 94 80 60 42 27 16 7 355 341 329 317 292 212 213 167 202 316 105 147 192 149 151 158 179 203 148 164 152 245 198 120 241 89 141 169 93 42 356 36 202 180 186 233 213
125 112 104 92 75 58 40 20 11 7 356 341 322 307 271 211 202 188 209 170 138 223 163 155 161 178 175 183 182 138 156 105 108 125 90 110 111 38 63 72 60 128 122 153 206 214 234
145 126 98 84 65 47 36 20 8 1 356 345 320 294 251 199 189 188 183 170 193 240 139 163 179 180 182 174 169 185 169 162 184 161 138 137 102 101 36 147 147 232 223 215 199 228 35
158 150 126 67 44 28 16 3 1 355 351 348 318 291 234 204 189 179 171 231 200 97 194 111 202 183 183 166 173 175 176 163 190 246 161 166 157 15 16 9 353 25 324 337 317 335 79
167 163 142 31 18 11 1 352 340 345 345 343 325 293 229 206 187 184 225 214 95 117 65 215 183 181 164 171 179 179 194 180 147 178 182 180 105 113 57 42 309 75 313 15 292 182 263
178 173 172 9 360 356 351 348 338 331 340 339 335 264 212 194 185 191 232 267 142 163 316 196 192 202 174 169 179 197 186 151 165 218 311 106 131 176 113 233 75 353 72 267 211 296 309
197 204 232 334 0 352 346 340 341 328 338 341 356 220 213 175 168 202 217 176 243 111 265 208 208 192 185 162 185 191 180 134 204 149 133 155 273 139 199 6 351 178 185 355 301 322 323
199 215 257 307 348 350 348 341 336 337 337 340 235 213 177 158 201 208 216 229 349 314 148 232 250 221 186 173 171 174 179 75 149 167 157 92 30 156 61 78 10 8 24 334 323 87 68
198 221 274 307 320 328 339 339 338 339 337 345 221 103 176 183 212 198 191 229 270 287 275 214 201 220 177 158 165 180 144 81 156 172 152 175 136 185 174 163 164 260 92 61 64 272 137
194 211 270 312 329 326 330 336 339 340 336 331 209 172 169 214 277 248 193 207 220 223 247 225 156 154 151 159 179 173 152 126 134 118 110 104 117 308 352 38 49 174 197 227 300 291 348
201 210 252 316 338 332 335 342 342 345 337 333 212 180 180 189 195 215 204 180 206 225 212 224 166 191 168 156 172 174 149 136 134 137 111 218 143 168 105 127 195 216 278 265 289 343 294
202 207 230 288 335 335 346 352 354 354 353 56 242 250 194 172 165 193 172 199 219 250 267 153 201 147 163 173 197 183 171 174 167 164 132 39 139 168 153 164 221 228 182 342 15 18 268
193 201 209 249 334 344 352 4 3 17 22 29 340 231 253 163 196 210 178 193 197 344 132 8 119 128 126 92 80 91 129 116 149 153 123 148 147 204 158 197 225 239 106 270 136 242 333
186 199 199 221 339 350 358 4 8 20 29 38 21 179 255 183 220 209 174 232 248 349 323 12 34 158 117 115 102 99 104 104 99 79 124 142 146 198 104 208 250 77 80 235 280 309 193
188 201 198 201 293 351 360 4 7 17 24 30 27 66 281 200 225 197 202 244 273 280 218 281 35 117 138 131 131 133 142 135 86 61 86 143 164 131 241 231 353 177 179 206 245 115 17
204 210 214 204 236 322 349 354 360 10 19 25 22 25 10 275 158 327 220 214 247 216 150 102 118 142 103 199 172 199 186 142 164 132 79 102 113 255 183 275 265 73 131 168 264 215 118
211 217 232 226 231 286 322 344 347 3 11 20 15 20 56 304 43 333 232 184 223 225 183 157 143 169 188 202 200 201 146 301 185 179 169 167 207 240 219 267 281 117 139 151 239 76 128
228 234 240 247 238 249 295 326 333 353 4 16 11 14 41 5 52 44 31 107 184 258 203 131 151 172 188 186 218 142 212 139 209 79 210 207 212 206 237 258 250 146 142 229 111 134 155
229 237 255 248 258 242 266 300 317 347 349 9 8 2 24 33 14 88 82 88 88 74 320 99 19 106 113 124 92 155 172 187 259 232 167 221 283 313 251 11 111 170 67 167 161 158 169